Вернуться в каталог

CZ-3B DEB

АктивенGTO
NORAD 40193·DEBRIS·🇨🇳 China

Запущен Dec 19, 2011 с Xichang Satellite Launch Center

Loading…

TLE

УстаревшееSource: Space-Track

Эпоха: Sep 11, 2026, 13:01 UTC

1 40193U 11077S   26254.54251830 -.00000267  00000-0  23419-2 0  9997
2 40193  26.7841   8.7933 7416778  13.7937 358.3750  1.86779488 77774

Отслеживайте CZ-3B DEB в реальном времени с AllMySat

Download on the App Store